Regional Weather Roundup
Issued by NWS Wakefield, VA

Home | Current Version | Previous Version | Graphics & Text | Print | Product List | Glossary On
Versions: 1 2 3 4 5 6 7 8 9 10 11 12 13 14 15 16 17 18 19 20 21 22 23 24 25 26 27
000
ASUS41 KAKQ 172015
RWRAKQ

REGIONAL WEATHER ROUNDUP
NATIONAL WEATHER SERVICE WAKEFIELD VA
300 PM EST FRI NOV 17 2017

Note: "fair" indicates few or no clouds below 12,000 feet with no
significant weather and/or obstructions to visibility. * = Denotes
station may not report precipitation (e.g., rain,snow,etc.),
thunder or fog.

VAZ042-051-052>054-056-172100-
NORTHERN VIRGINIA

CITY           SKY/WX    TMP DP  RH WIND       PRES   REMARKS
WASH NATIONAL  PTSUNNY   52  27  38 NW9       30.16F
DULLES         PTSUNNY   51  27  39 W8        30.16F
FORT BELVOIR   SUNNY     53  26  35 NW7       30.16S
QUANTICO       CLOUDY    53  27  36 VRB5      30.17F
FREDERICKSBRG* PTSUNNY   55  29  37 NW9       30.16S
STAFFORD*      CLOUDY    54  27  35 NW10      30.20S
WARRENTON      NOT AVBL
CULPEPER*      CLOUDY    56  21  25 CALM      30.17S
MANASSAS*      CLOUDY    52  28  39 W9        30.17S
LEESBURG*      SUNNY     52  30  43 N6        30.16F
WINCHESTER     MOSUNNY   46  28  49 W6        30.14F
FRONT ROYAL*   PTCLDY    52  28  40 CALM      30.14F
LURAY*         CLEAR     52  30  43 S6        30.15F
$$

VAZ048-049-060>072-079>083-172100-
CENTRAL AND SOUTH CENTRAL VIRGINIA

CITY           SKY/WX    TMP DP  RH WIND       PRES   REMARKS
RICHMOND       CLOUDY    53  28  38 N8        30.16F
CHESTERFIELD*  NOT AVBL
PETERSBURG*    PTSUNNY  N/A N/A N/A NW3       30.16F
HANOVER        MOSUNNY   54  29  38 W7        30.17F
TAPPAHANNOCK*    N/A    N/A N/A N/A MISG        N/A
QUINTON*       FAIR      52  29  41 W6        30.16S
CHARLOTTSVILLE SUNNY     57  23  26 W3        30.14F
GORDONSVILLE*  PTCLDY    56  27  33 S5        30.15S
ORANGE*        MOSUNNY   54  28  37 CALM      30.16F
LOUISA*          N/A     52  24  33 CALM        N/A
BUMPASS*       FAIR      54  25  32 W12       30.16F
FARMVILLE*     CLOUDY    58  27  29 CALM      30.14F
CREWE*         FAIR      54  28  37 NW5       30.15F
FORT PICKETT*  NOT AVBL
CHASE CITY*    FAIR      54  27  35 CALM      30.15F
CLARKSVILLE*   FAIR      54  30  40 E3        30.15F
SOUTH HILL*    CLOUDY    52  31  45 CALM      30.21F
LAWRENCEVILLE* FAIR      54  28  36 CALM      30.15F
EMPORIA*       MOSUNNY   52  32  46 NW5       30.17F
$$

VAZ088>098-172100-
SOUTHEAST VIRGINIA

CITY           SKY/WX    TMP DP  RH WIND       PRES   REMARKS
NORFOLK        CLOUDY    54  33  45 W7        30.15F
VIRGINIA BEACH PTSUNNY   53  32  44 N10       30.14F
NORFOLK NAVAL  MOSUNNY   53  31  42 W9        30.17S
WEST POINT*    PTSUNNY   52  28  38 W8        30.18R
SALUDA*        FAIR      51  33  50 NW8       30.15S
NEWPORT NEWS   MOSUNNY   53  32  44 W12       30.15S
LANGLEY AFB    CLOUDY    54  32  43 N9        30.15S
FORT EUSTIS    MOSUNNY   52  32  45 W9        30.13S
WILLIAMSBURG*  MOSUNNY   55  32  41 NW7       30.17R
HR EXEC AP*    NOT AVBL
FRANKLIN*      MOSUNNY   52  30  43 NW6       30.16S
US460-WAKEFLD  MOSUNNY   54  30  40 VRB5      30.16F
$$

VAZ020-022-025-037-045-172100-
WEST CENTRAL AND SOUTHWEST VIRGINIA

CITY           SKY/WX    TMP DP  RH WIND       PRES   REMARKS
STAUNTON*      SUNNY     50  28  43 CALM      30.16F
WAYNESBORO*    PTCLDY    52  22  30 CALM      30.14F
HOT SPRINGS VA SUNNY     47  19  31 CALM      30.12F
LYNCHBURG      MOSUNNY   55  22  27 CALM      30.15F
DANVILLE       MOSUNNY   55  26  32 VRB3      30.15F
SOUTH BOSTON*  FAIR      57  23  26 CALM      30.15F
MARTINSVILLE   CLOUDY    56  23  27 CALM      30.17S
ROANOKE        MOSUNNY   54  26  34 CALM      30.16F
BLACKSBURG     SUNNY     54  26  33 CALM      30.15F
DUBLIN*        SUNNY     55  25  30 CALM      30.13F
MARION*        SUNNY     59  15  18 E6        30.12F
HILLSVILLE*    SUNNY     58  21  24 SE3       30.10F
RICHLANDS*     FAIR     N/A N/A N/A CALM      30.09F
WISE*          SUNNY     61  21  21 S5        30.10F
ABINGDON*      SUNNY     63  18  18 CALM      30.09F
$$

MDZ021>025-VAZ099-100-172100-
SOUTHERN MARYLAND AND THE DELMARVA PENINSULA

CITY           SKY/WX    TMP DP  RH WIND       PRES   REMARKS
PATUXENT RIVER MOSUNNY   53  28  38 N12       30.14S
BAY BRIDGE APT SUNNY     50  30  46 N6        30.14S
LEONARDTOWN    SUNNY     52  27  37 W6        30.16S
DOVER          SUNNY     51  27  39 W13       30.11F
GEORGETOWN     SUNNY     51  27  39 NW8       30.12F
EASTON         MOSUNNY   52  27  37 NW9       30.18S
CAMBRIDGE      SUNNY     50  28  43 NW7       30.14F
SALISBURY      SUNNY     51  30  44 NW10      30.13S
OCEAN CITY     SUNNY     52  30  43 N12       30.12F
WALLOPS ISLAND MOSUNNY   52  33  48 NW13      30.13S
ACCOMACK*      SUNNY     50  36  58 NW12G18   30.14S
$$

NCZ012>017-030>032-172100-
NORTH CENTRAL AND EASTERN NORTH CAROLINA

CITY           SKY/WX    TMP DP  RH WIND       PRES   REMARKS
ROANOKE RAPIDS FAIR      54  32  43 CALM      30.16F
RALEIGH        PTSUNNY   56  30  37 VRB6      30.16F
ELIZABETH CITY SUNNY     54  35  48 N3        30.14F
AHOSKIE*       CLOUDY    52  31  44 CALM      30.17S
EDENTON*       SUNNY     55  35  46 CALM      30.15F
CURRITUCK*     SUNNY     54  33  44 N9        30.15F
KILL DEVIL HLS SUNNY     52  35  52 CALM      30.13F
MANTEO         SUNNY     51  36  56 NW9       30.16S
CAPE HATTERAS  SUNNY     54  42  64 NE8G17    30.14F
TARBORO*       NOT AVBL
GOLDSBORO      MOSUNNY   58  32  38 NW3       30.15S
WASHINGTON     CLOUDY    56  33  42 N5        30.16S
GREENVILLE     CLOUDY    55  32  41 NE3       30.17S
NEW BERN       CLOUDY    56  36  47 NE7       30.16F
WILMINGTON     SUNNY     61  35  37 CALM      30.15F
$$

VAZ048-172100-
ELSEWHERE

CITY           SKY/WX    TMP DP  RH WIND       PRES   REMARKS
HARRISBURG PA  MOSUNNY   49  25  39 NW12      30.12F
BALTIMORE      MOSUNNY   52  25  35 NW8       30.14S
ANNAPOLIS      SUNNY     53  32  44 NW9       30.14S
ANDREWS AFB    SUNNY     51  26  37 W9        30.13F
PHILADELPHIA   MOSUNNY   50  21  32 NW12G21   30.11S
HENDERSON NC   MOSUNNY   51  28  41 CALM      30.16F
GREENSBORO     PTSUNNY   57  28  33 CALM      30.13F
ROCKY MOUNT    MOSUNNY   56  32  40 VRB3      30.16F
$$

VAZ100-172100-
MARINE

STATION/POSITION TIME  TEMP    WIND        PRES    WAVE   SWELL
                       AIR SEA DIR/SP/G            HT/PER HT/PER
                 (UTC) (F)     (DEG/KT/KT) (MB)    (FT/S) (FT/S)
15NM E FENWICK I 1950   49 59  310/ 21/ 23 1019.2F   5/ 5   2/13
THOMAS POINT MD  2000   51 54  290/  9/ 11   N/A
GOOSES REEF MD   2000   52 55  360/  6/  8 1028.3    1/ 2
POTOMAC MD       2000   51 55  290/ 14/ 17 1020.2    2/ 2
STINGRAY PT      2000   51 55  320/ 14/ 16 1021.1    1/ 3
JAMESTOWN VA     2000      55  320/  6/  8   N/A     0
CAPE HENRY BUOY  2000      61                N/A     4/13   2/13
1ST LANDING BUOY 2000   50 56  340/ 10/ 14 1021.1    1/ 3
CAPE CHARLES BUO 1951      58                N/A     3/13   2/13
64NM E OF VA BCH 1950   51 61  330/ 14/ 17 1020.3F   5/13   3/13
44100 DUCK FRF   1915      62                N/A     5/ 8   2/11
44056 DUCK FRF   2000      60                N/A     4/ 6   2/11
DIAMOND SHLS NC  2000   54 65   10/ 17/ 19 1020.7
CAPE LOOKOUT NC  2000   54      10/  8/  9 1020.9F
$$




USA.gov is the U.S. government's official web portal to all federal, state and local government web resources and services.